Home > Weather > Salt Lake City > Past weeks

Flag for USA Past Weather in Salt Lake City, Utah, USA — Yesterday and Last 2 Weeks

Now
78 °F

Broken clouds.


Feels Like: 77 °F
Forecast: 52 / 75 °F
Wind: 15 mph from North

Location: Salt Lake City International Airport

Current Time: May 30, 2016 at 6:18:36 PM

Latest Report: May 30, 2016 at 5:54 PM


Visibility: 10 mi

Pressure: 29.91 "Hg (25.74 "Hg at 1312m altitude)

Humidity: 19%

Dew Point: 33 °F

Location of Salt Lake CityLocation

Past Weather in Salt Lake City — Graph

°F

Salt Lake City Temperature Yesterday

Maximum temperature yesterday: 79 °F (at 12:54 PM)
Minimum temperature yesterday: 57 °F (at 3:54 AM)
Average temperature yesterday: 68 °F

High & Low Weather Summary for the Past Weeks

 TemperatureHumidityPressure
High82 °F (May 19, 3:54 PM)90% (May 19, 11:54 PM)30.01 "Hg (May 19, 11:54 PM)
Low45 °F (May 23, 5:54 AM)17% (May 20, 9:54 PM)29.41 "Hg (May 20, 3:54 PM)
Average62 °F48%29.82 "Hg
* Reported May 15 4:54 PM — May 30 4:54 PM, Salt Lake City, Weather by CustomWeather, © 2016

Note: Actual official high and low records may vary slightly from our data, if they occured in-between our weather recording intervals... More about our weather records

Advertising

Salt Lake City Weather History for the Previous 24 Hours

Scroll right to see more
 ConditionsComfort  
Time TempWeatherWind HumidityBarometerVisibility
4:54 PM
Mon, May 30
78 °FPartly sunny.12 mph21%29.92 "Hg10 mi
3:54 PM78 °FPartly sunny.14 mph22%29.92 "Hg10 mi
2:54 PM77 °FScattered clouds.14 mph28%29.94 "Hg10 mi
1:54 PM77 °FScattered clouds.10 mph28%29.94 "Hg10 mi
12:54 PM74 °FScattered clouds.No wind28%29.96 "Hg10 mi
11:54 AM74 °FScattered clouds.No wind28%29.96 "Hg10 mi
10:54 AM72 °FPassing clouds.5 mph29%29.97 "Hg10 mi
9:54 AM68 °FScattered clouds.5 mph39%29.98 "Hg10 mi
8:54 AM65 °FScattered clouds.9 mph47%29.98 "Hg10 mi
7:54 AM61 °FScattered clouds.10 mph54%29.98 "Hg10 mi
6:54 AM57 °FPassing clouds.9 mph64%29.98 "Hg10 mi
5:54 AM56 °FPassing clouds.7 mph70%29.96 "Hg10 mi
4:54 AM58 °FPassing clouds.8 mph67%29.95 "Hg10 mi
3:54 AM59 °FMostly cloudy.14 mph67%29.97 "Hg10 mi
2:54 AM60 °FPassing clouds.9 mph69%29.99 "Hg10 mi
1:54 AM63 °FPassing clouds.16 mph48%29.94 "Hg10 mi
12:54 AM61 °FPassing clouds.12 mph60%29.95 "Hg10 mi
11:54 PM
Sun, May 29
64 °FPassing clouds.24 mph54%29.95 "Hg10 mi
10:54 PM66 °FPassing clouds.3 mph49%29.90 "Hg10 mi
9:54 PM66 °FPartly cloudy.10 mph45%29.91 "Hg10 mi
8:54 PM68 °FMostly cloudy.14 mph42%29.91 "Hg10 mi
7:54 PM70 °FBroken clouds.15 mph35%29.89 "Hg10 mi
6:54 PM71 °FPartly sunny.21 mph35%29.89 "Hg10 mi
Weather by CustomWeather, © 2016

See weather overviewHow to use our weather pages